Probability
0 0 0 0 0 0 0 0 0 0 0 0 0 0 0 0 0 0 0 0 0 0 0 0 0 0 0 0 0 0 0 0 0 0 0 0 0 0 0 0 0 0 0
0 0 0 0 1 1 1 0 0 0 0 0 0 0 0 0 0 0 0 0 0 0 0 0 0 0 0 0 0 0 0 0 0 0 0 0 0 0 0 0 0 0 0
0 0 0 1 2 2 2 1 1 0 0 0 0 0 0 0 0 0 0 0 0 0 0 0 0 0 0 0 0 0 0 0 0 0 0 0 0 0 0 0 0 0 0
0 0 0 1 2 3 3 3 2 1 0 0 0 0 0 0 0 0 0 0 0 0 0 0 0 0 0 0 0 0 0 0 0 0 0 0 0 0 0 0 0 0 0
0 0 0 1 3 3 3 3 3 2 1 0 0 0 0 0 0 0 0 0 0 0 0 0 0 0 0 0 0 0 0 0 0 0 0 0 0 0 0 0 0 0 0
1 0 1 2 3 4 3 3 3 3 2 1 0 0 0 0 0 0 0 0 0 0 0 0 0 0 0 0 0 0 0 0 0 0 0 0 0 0 0 0 0 0 0
2 1 2 3 4 4 4 3 3 3 3 1 0 0 0 0 0 0 0 0 0 0 0 0 0 0 0 0 0 0 0 0 0 0 0 0 0 0 0 0 0 0 0
2 1 1 2 3 4 3 3 3 3 3 2 1 0 0 0 0 0 0 0 0 0 0 0 0 0 0 0 0 0 0 0 0 0 0 0 0 0 0 0 0 0 0
2 1 0 1 2 3 3 3 3 3 3 2 1 0 0 0 0 0 0 0 0 0 0 0 0 0 0 0 0 0 0 0 0 0 0 0 0 0 0 0 0 0 0
1 0 0 0 1 2 3 3 3 3 2 1 0 0 0 0 0 0 0 0 0 0 0 0 0 0 0 0 0 0 0 0 0 0 0 0 0 0 0 0 0 0 0
0 0 0 0 0 1 3 3 3 3 1 0 0 0 0 0 0 0 0 0 0 0 0 0 0 0 0 0 0 0 0 0 0 0 0 0 0 0 0 0 0 0 0
0 0 0 0 0 1 2 3 3 2 1 0 0 0 0 0 0 0 0 0 0 0 0 0 0 0 0 0 0 0 0 0 0 0 0 0 0 0 0 0 1 1 0
0 0 0 0 0 0 1 3 3 1 0 0 0 0 0 0 0 0 0 0 0 0 0 0 0 0 0 0 0 0 0 0 0 0 0 0 0 0 0 0 1 1 1
0 0 0 0 0 0 1 2 2 1 0 0 0 0 0 0 0 0 0 0 0 0 0 0 0 0 0 0 0 0 0 0 0 0 0 0 0 0 0 0 1 1 0
0 0 0 0 0 0 0 1 1 0 0 0 0 0 0 0 0 0 0 0 0 0 0 0 0 0 0 0 0 0 0 0 0 0 0 0 0 0 0 0 0 0 0
0 0 0 0 0 0 0 0 0 0 0 0 0 0 0 0 0 0 0 0 0 0 0 0 0 0 0 0 0 0 0 0 0 0 0 0 0 0 0 0 0 0 0
0 0 0 0 0 0 0 0 0 0 0 0 0 0 0 0 0 0 0 0 0 0 0 0 0 0 0 0 0 0 0 0 0 0 0 0 0 0 0 0 0 0 0
0 0 0 0 0 0 0 0 0 0 0 0 0 0 0 0 0 0 0 0 0 0 0 0 0 0 0 0 0 0 0 0 0 0 0 0 0 0 0 0 0 0 0
0 0 0 0 0 0 0 0 0 0 0 0 0 0 0 0 0 0 0 0 0 0 0 0 0 0 0 0 0 0 0 0 0 0 0 0 0 0 0 0 0 0 0
0 0 0 0 0 0 0 0 0 0 0 0 0 0 0 0 0 0 0 0 0 0 0 0 0 0 0 0 0 0 0 0 0 0 0 0 0 0 0 0 0 0 0
0 0 0 0 0 0 0 0 0 0 0 0 0 0 0 0 0 0 0 0 0 0 0 0 0 0 0 0 0 0 0 0 0 0 0 0 0 0 0 0 0 0 0
0 0 0 0 0 0 0 0 0 0 0 0 0 0 0 0 0 0 0 0 0 0 0 0 0 0 0 0 0 0 0 0 0 0 0 0 0 0 0 0 0 0 0
0 0 0 0 0 0 0 0 0 0 0 0 0 0 0 0 0 0 0 0 0 0 0 0 0 0 0 0 0 0 0 0 0 0 0 0 0 0 0 0 0 0 0
0 0 0 0 0 0 0 0 0 0 0 0 0 0 0 0 0 0 0 0 0 0 0 0 0 0 0 0 0 0 0 0 0 0 0 0 0 0 0 0 0 0 0
0 0 0 0 0 0 0 0 0 0 0 0 0 0 0 0 0 0 0 0 0 0 0 0 0 0 0 0 0 0 0 0 0 0 0 0 0 0 0 0 0 0 0
0 0 0 0 0 0 0 0 0 0 0 0 0 0 0 0 0 0 0 0 0 0 0 0 0 0 0 0 0 0 0 0 0 0 0 0 0 0 0 0 0 0 0
Wind_Speed
1 1 1 4 5 6 8 9 9 10 10 10 11 11 11 11 11 10 10 10 10 10 10 11 11 11 11 11 11 11 11 10 10 10 10 9 9 10 10 10 9 6 10
1 0 2 4 5 6 7 8 8 9 9 10 10 10 10 10 10 10 10 10 9 9 10 10 10 10 10 10 10 10 10 10 10 10 10 9 9 9 9 9 9 6 10
2 2 3 4 6 7 7 8 8 8 9 9 9 9 10 10 10 10 10 10 9 9 9 10 10 10 10 9 9 9 9 9 10 9 9 5 5 8 8 9 9 9 9
3 2 2 5 6 7 7 8 8 8 9 9 9 9 10 10 10 10 10 9 9 9 9 9 9 9 9 9 9 9 9 9 9 9 5 4 4 7 9 9 9 10 10
3 2 3 5 7 7 8 8 8 8 9 9 9 9 9 9 9 10 9 9 9 9 10 9 9 8 8 8 8 9 9 9 10 8 5 4 4 7 9 9 9 9 9
3 3 3 6 7 7 7 8 8 8 8 8 8 8 8 8 9 9 9 9 9 9 9 9 9 8 7 8 8 9 9 9 8 5 4 4 4 7 9 9 9 9 9
4 3 4 6 6 7 7 8 7 8 8 8 8 8 7 7 7 7 7 8 8 8 8 8 8 8 8 8 8 9 9 9 6 4 4 4 4 8 9 8 8 8 8
4 4 4 6 6 6 7 7 7 7 7 7 7 7 7 6 7 6 7 7 7 7 7 7 7 8 8 9 9 9 9 8 6 5 4 4 6 8 8 8 8 8 8
4 4 4 3 4 5 5 6 6 6 7 7 7 6 6 6 6 6 6 6 6 6 6 7 7 7 8 9 9 9 9 8 5 3 4 3 6 8 8 8 8 8 8
4 3 3 3 2 2 2 4 5 6 6 6 7 6 6 5 6 7 5 6 6 6 6 7 7 7 8 8 8 9 8 7 4 3 2 3 7 7 8 7 7 8 7
3 2 2 2 2 2 2 3 3 4 5 5 5 5 4 2 3 4 5 5 5 6 6 6 7 7 7 7 8 8 7 3 3 3 2 4 6 7 6 6 7 7 7
1 1 1 2 2 2 1 2 2 2 2 2 2 2 2 2 2 3 4 4 4 5 5 6 6 6 5 3 5 6 3 4 3 2 3 6 6 6 6 6 6 6 6
2 1 1 1 2 2 1 1 1 1 1 1 2 2 2 2 2 2 1 2 2 3 2 3 3 2 2 2 2 2 3 3 2 2 4 6 6 6 6 6 6 6 6
2 1 1 1 2 1 1 1 1 1 1 1 1 1 2 1 1 1 1 1 1 1 1 1 1 2 2 2 2 2 3 2 2 2 4 7 7 6 6 5 5 6 6
2 1 1 1 2 1 1 1 2 1 1 1 1 1 2 1 1 0 0 0 0 0 1 1 1 1 2 2 2 2 2 2 2 3 3 7 8 7 7 6 5 5 5
2 2 1 1 2 2 2 1 1 1 1 1 1 1 1 1 1 1 0 1 1 0 0 1 1 1 1 1 2 2 2 2 3 3 3 4 8 8 8 7 6 6 5
2 2 2 2 2 2 2 1 1 2 2 1 1 1 1 1 1 1 1 0 0 0 0 1 1 1 2 2 2 2 2 2 2 3 3 3 4 8 9 8 8 7 6
2 2 1 2 2 2 1 1 2 2 2 1 1 1 1 1 1 1 1 0 0 0 1 1 1 1 2 2 1 1 2 2 2 2 2 3 3 4 6 9 9 9 8
3 2 2 2 2 2 1 1 2 2 2 1 1 1 1 1 1 1 1 0 0 1 1 1 1 1 1 1 1 1 1 1 1 2 2 3 3 3 3 6 9 9 9
2 2 2 2 1 2 1 1 2 2 1 1 1 1 1 1 1 1 0 1 1 1 1 1 1 1 1 1 1 2 1 1 1 1 1 2 2 3 4 4 4 6 10
1 1 2 2 1 1 1 1 1 0 0 1 1 1 1 1 1 1 1 1 1 1 1 2 2 2 1 1 2 2 2 1 1 1 1 1 2 3 3 3 3 3 4
3 3 2 2 1 1 1 1 1 1 1 0 1 1 1 1 1 0 1 1 1 1 1 1 2 2 1 1 1 1 1 2 2 2 1 1 1 2 2 3 2 3 3
4 4 3 2 2 1 1 1 1 1 1 1 1 1 1 1 0 0 1 1 1 1 1 2 2 3 2 1 1 2 1 2 2 2 1 1 1 1 2 2 2 3 3
4 3 3 3 2 2 2 2 3 2 2 2 1 1 1 1 1 0 1 1 1 1 1 1 2 2 3 2 0 0 1 2 1 2 2 1 2 2 2 3 3 3 3
3 2 2 2 2 2 2 3 2 2 2 1 0 0 0 1 1 1 0 1 1 1 1 1 1 2 2 2 2 1 0 0 1 2 3 3 2 2 2 3 2 2 3
2 2 1 2 2 1 2 2 3 3 2 1 1 1 1 1 1 1 0 1 1 1 1 1 1 2 2 2 1 1 1 1 1 2 3 3 3 3 3 2 2 2 2
Wind_Direction
317 308 43 87 88 88 89 92 92 89 85 83 81 81 81 80 80 80 80 79 80 80 78 77 74 71 69 68 66 64 61 57 54 52 51 50 54 58 59 56 50 43 50
178 182 76 88 92 90 92 97 97 94 90 87 83 80 81 81 81 80 79 78 78 78 79 77 75 72 70 68 65 61 59 56 51 48 47 47 50 54 57 58 53 51 52
103 93 89 89 93 90 93 99 98 97 93 89 86 81 80 79 79 79 78 74 73 75 78 77 75 73 70 66 61 59 60 56 50 45 42 35 38 48 54 55 52 48 50
98 88 86 92 96 95 95 97 96 95 94 91 85 81 78 77 76 75 75 73 69 70 72 73 73 71 67 63 59 59 57 53 48 44 42 34 30 48 54 56 54 51 50
90 81 81 90 98 98 96 95 95 92 88 86 83 80 77 77 77 75 74 72 68 70 70 70 68 69 67 62 59 57 55 54 52 53 44 34 30 51 55 56 55 51 47
76 75 85 88 96 95 94 95 95 94 90 84 81 81 78 74 75 74 73 70 69 68 68 66 63 61 64 64 57 55 58 56 57 53 43 40 40 56 57 56 55 52 49
68 60 77 77 93 93 91 92 95 95 92 87 81 80 77 73 71 75 72 70 67 68 68 65 63 58 55 54 56 57 58 58 63 56 45 43 47 56 55 54 51 49 52
83 66 67 69 73 85 89 88 86 87 89 88 84 79 74 70 67 71 72 69 67 67 68 64 63 59 54 54 54 53 53 56 62 55 51 49 50 54 52 49 49 50 49
83 72 57 53 64 68 80 85 82 82 81 78 75 72 67 63 58 59 64 65 64 64 66 65 62 59 59 56 53 50 50 50 56 54 54 49 53 55 52 47 47 49 47
83 78 69 48 45 62 80 83 81 79 75 70 68 67 64 62 60 56 55 60 61 61 66 65 64 60 57 53 52 48 45 48 52 51 49 54 55 54 51 46 48 48 47
71 60 68 62 36 45 75 83 86 85 81 78 71 70 68 60 61 56 48 59 61 61 71 73 67 62 55 50 50 47 41 43 48 45 39 49 53 51 50 48 44 42 42
92 50 68 67 46 30 68 83 98 99 97 87 87 85 73 60 56 53 42 46 53 56 64 66 63 57 50 41 42 42 42 35 44 36 33 44 49 48 47 44 40 40 43
170 119 77 79 71 52 52 94 98 97 96 88 93 97 92 72 55 39 25 31 40 49 50 47 49 50 46 41 38 42 48 43 37 30 25 35 42 45 46 44 45 44 42
160 149 103 97 83 63 48 99 103 96 93 88 97 108 104 86 63 47 17 6 37 46 57 48 55 56 51 46 52 52 52 55 45 32 28 31 37 42 43 41 40 37 34
160 160 138 114 99 81 62 68 94 98 106 112 106 97 110 119 134 116 354 22 14 51 82 73 78 72 65 52 51 57 60 61 50 45 30 32 31 32 33 33 29 25 24
193 186 165 141 123 97 71 53 103 101 96 86 87 81 106 123 134 130 65 36 19 17 114 125 116 106 83 68 54 54 62 59 52 46 33 28 30 28 22 18 17 14 13
204 193 170 153 123 114 91 70 90 88 79 70 68 67 72 95 126 134 119 72 345 17 63 117 103 89 80 67 57 43 50 52 55 49 39 30 23 27 23 17 13 8 4
181 184 178 149 134 125 110 127 108 97 86 68 41 53 67 66 93 125 117 128 299 78 81 88 116 94 69 69 53 30 36 49 60 58 50 35 27 21 19 23 20 13 7
183 184 172 158 153 137 140 144 114 107 99 91 60 23 54 59 63 112 129 164 134 104 93 80 61 117 102 71 60 43 20 39 61 64 57 41 32 24 15 17 18 13 7
190 180 172 171 167 139 128 108 91 73 66 62 65 16 29 43 46 82 80 32 87 105 76 74 65 67 110 102 70 35 2 14 48 62 47 39 31 26 21 14 8 7 9
185 167 186 191 175 148 137 133 131 105 14 16 19 3 3 1 48 104 97 68 75 111 115 113 104 95 60 82 72 26 4 8 41 39 30 40 25 23 24 18 8 359 354
202 201 201 203 185 192 197 165 176 167 186 184 358 359 357 344 345 122 132 138 124 123 111 122 121 130 114 81 103 80 345 337 354 353 15 35 12 6 7 1 354 351 344
211 209 201 209 207 205 181 120 98 84 51 24 330 319 327 319 299 181 163 150 154 156 175 178 154 152 167 184 119 134 159 250 312 316 329 336 348 345 330 329 335 327 336
225 213 198 199 197 196 174 160 170 181 202 232 240 249 302 318 296 225 181 169 167 165 176 191 164 168 159 173 214 217 176 168 191 297 302 301 319 312 301 312 314 310 321
216 207 203 189 200 204 186 177 183 204 218 221 242 238 314 337 331 293 200 172 182 180 179 180 168 166 168 175 183 179 170 259 168 215 276 296 309 286 281 281 285 292 306
200 195 198 191 221 214 194 186 190 197 194 187 236 240 282 330 329 306 235 213 205 187 190 198 192 178 178 176 183 172 166 183 214 216 251 283 290 279 274 268 267 276 290